Regional Weather Roundup
Issued by NWS Charleston, SC

Current Version | Previous Version | Graphics & Text | Print | Product List | Glossary On
Versions: 1 2 3 4 5 6 7 8 9 10 11 12 13 14 15 16 17 18 19 20 21 22 23 24 25 26 27 28 29 30 31 32 33 34 35 36 37 38 39 40 41 42 43 44 45 46 47 48 49 50
906 ASUS42 KCHS 251828 RWRCHS REGIONAL WEATHER ROUNDUP NATIONAL WEATHER SERVICE CHARLESTON SC 200 PM EDT WED MAY 25 2016 NOTE: "FAIR" INDICATES FEW OR NO CLOUDS BELOW 12,000 FEET WITH NO SIGNIFICANT WEATHER AND/OR OBSTRUCTIONS TO VISIBILITY. NOT ALL STATIONS ARE QUALITY CONTROLLED. USE DATA WITH CAUTION... ESPECIALLY DEWPOINT OBSERVATIONS. SCZ027-030-031-034>040-042>050-251900- ...SOUTHEAST SOUTH CAROLINA... CITY SKY/WX TMP DP RH WIND PRES REMARKS N CHARLESTON MOSUNNY 89 54 30 VRB3 30.22F 6HR MIN TEMP: 73; 6HR MAX TEMP: 90; WATERFRONT PRK N/A 80 70 71 S8 30.21F MOUNT PLEASANT FAIR 84 70 61 S12 30.23S JOHNS ISLAND FAIR 82 68 61 S9G15 30.23S PINOPOLIS N/A 84 66 54 VRB2 30.16F MONCKS CORNER FAIR 84 43 23 N5 30.21F SUMMERVILLE FAIR 86 57 37 CALM 30.23F BEAUFORT MCAS MOSUNNY 83 64 52 CALM 30.23F BEAUFORT ARPT FAIR 84 59 42 SW6 30.23S HILTON HEAD IS MOSUNNY 84 70 61 S12 30.25F WALTERBORO CLEAR 88 48 25 W6 30.22F ALLENDALE FAIR 86 54 32 VRB5 30.21F ...SOUTHERN MIDLANDS AND PEE DEE... CITY SKY/WX TMP DP RH WIND PRES REMARKS GEORGETOWN MOCLDY 81 64 57 E8 30.22F KINGSTREE FAIR 86 48 26 CALM 30.21F ORANGEBURG MOSUNNY 88 55 32 W7 30.22F 6HR MIN TEMP: 65; 6HR MAX TEMP: 88; 6HR PCP: TRACE; BARNWELL FAIR 90 54 29 CALM 30.22F AIKEN FAIR 82 52 34 CALM 30.26F MANNING FAIR 84 54 34 SW6 30.22S COLUMBIA MOSUNNY 91 57 31 W7 30.21F 6HR MIN TEMP: 67; 6HR MAX TEMP: 91; SUMTER PTSUNNY 87 54 32 SW8 30.20F 6HR MIN TEMP: 69; 6HR MAX TEMP: 87; FLORENCE PTSUNNY 87 56 34 S6 30.21F 6HR MIN TEMP: 66; 6HR MAX TEMP: 88; MYRTLE BEACH MOSUNNY 82 64 54 S14 30.24 N MYRTLE BEACH SUNNY 80 67 64 S13 30.22F 6HR MIN TEMP: 69; 6HR MAX TEMP: 81; $$ GAZ063-065-086>088-099>101-113>116-118-119-134>141-150-251900- ...SOUTHEAST GEORGIA... CITY SKY/WX TMP DP RH WIND PRES REMARKS SAVANNAH ARPT PTSUNNY 86 58 38 VRB3 30.23F 6HR MIN TEMP: 70; 6HR MAX TEMP: 87; HUNTER AAF PTSUNNY 84 69 60 SE8 30.21S 6HR MIN TEMP: 71; 6HR MAX TEMP: 85; FORT STEWART MOSUNNY 87 57 36 E5 30.20F 6HR MIN TEMP: 67; 6HR MAX TEMP: 88; STATESBORO SUNNY 89 59 36 CALM 30.23S SYLVANIA CLEAR 90 53 28 W6 30.23F CLAXTON FAIR 88 60 39 CALM 30.22F ...CSRA...CENTRAL AND FAR SOUTHEAST GEORGIA... CITY SKY/WX TMP DP RH WIND PRES REMARKS THOMSON SUNNY 89 58 36 S6 30.27F AUGUSTA-BUSH MOSUNNY 87 54 32 VRB5 30.22F 6HR MIN TEMP: 64; 6HR MAX TEMP: 87; AUGUSTA-DANIEL MOSUNNY N/A N/A N/A MISG 30.23F SWAINSBORO FAIR 88 52 29 NE6 30.23F VIDALIA MOSUNNY 88 54 31 SW3 30.22S EASTMAN FAIR 89 56 32 S5 30.24F HAZLEHURST FAIR 88 55 32 CALM 30.21F ALMA SUNNY 87 51 28 VRB3 30.21F 6HR MIN TEMP: 67; 6HR MAX TEMP: 88; WAYCROSS PTSUNNY 88 56 33 S7 30.21F JESUP FAIR 82 57 42 SE3 30.22F BAXLEY CLOUDY 88 52 29 CALM 30.22S BRUNSWICK MOSUNNY 88 61 40 SE9 30.24S SAINT SIMONS SUNNY 82 66 58 SE10 30.24S 6HR MIN TEMP: 73; 6HR MAX TEMP: 83; $$ SCZ027-028-034-036>038-045-046-048>050-GAZ119-141-251900- ...LAKE AND SUPPLEMENTAL COASTAL OBSERVATIONS... STATION/POSITION TIME TEMP WIND PRES WAVE SWELL AIR SEA DIR/SP/G HT/PER HT/PER/DIR (UTC) (F) (DEG/KT/KT) (MB) (FT/S) (FT/S/D) WINYAH BAY 1700 79 160/ 10 1023.0S LAKE MURRAY 1700 81 270/ 6/ 8 1023.0F ACE BASIN NERRS 1700 83 150/ 1 1024.0F FORT PULASKI 1800 80 76 160/ 6/ 9 1024.4F SAPELO ISLAND 1800 86 160/ 8 1024.0S $$ ANZ835-935-AMZ111-154-330-350-352-354-370-450-454-472-251900- ...C-MAN AND BUOY OBSERVATIONS... STATION/POSITION TIME TEMP WIND PRES WAVE SWELL AIR SEA DIR/SP/G HT/PER HT/PER/DIR (UTC) (F) (DEG/KT/KT) (MB) (FT/S) (FT/S/D) BUOY 41004 1750 78 79 280/ 2/ 4 1024.1F 2/ 8 2/ 8 BUOY 41008 1750 77 78 190/ 4/ 6 1024.2F 2/10 2/100/10 FOLLY BEACH CMAN 1800 77 190/ 11/ 12 1024.2F CAPERS NEARSHORE 1808 76 76 200/ 10/ 14 1023.7F FRIPP NEARSHORE 1808 76 77 180/ 8/ 10 1023.7F STATION/POSITION TIME TEMP WIND PRES WAVE SWELL AIR SEA DIR/SP/G HT/PER HT/PER/DIR (UTC) (F) (DEG/KT/KT) (MB) (FT/S) (FT/S/D) 5E ST. MARYS GA 1721 79 N/A 2/10 FRYING PAN BUOY 1800 76 77 230/ 6/ 8 1023.9F BUOY 41025 1750 70 70 240/ 8/ 10 1023.5F 3/ 8 2/130/ 8 CAPE LOOKOUT NC 1800 77 210/ 6/ 8 1023.2F BUOY 41002 1750 74 79 60/ 8/ 10 1024.2F 3/ 8 3/ 80/ 8 BUOY 41010 1720 76 79 40/ 10/ 14 1023.8F ST AUGUSTINE FL 1800 78 80 140/ 9/ 10 1024.5F $$

USA.gov is the U.S. government's official web portal to all federal, state and local government web resources and services.